[[{"header":{"parameterUnit":"m.s-1","parameterCategory":1,"la1":30.2991,"la2":30.254,"lo1":-89.0895,"lo2":-89.0444,"dy":0.0017,"dx":0.0017,"nx":28,"ny":28,"refTime":"2023-11-08T09:00:00:Z","depth":0,"parameterNumber":2,"parameterNumberName":"U-component_of_WINDS"},"data":[0,0,0,0,0,0,0,0,0,0,0,0,0,0,0,0,0,0,0,0,0,0,0,0,0,0,0,0,0,0,0,0,0,0,0,0,0,0,0,0,0,0,0,0,0,0,0,0,0,0,0,0,0,0,0,0,0,0,-2.2412,-2.2411,0,-2.2395,-2.2395,-2.2395,-2.2318,-2.2316,-2.2314,-2.2312,-2.2297,-2.2298,-2.23,0,0,0,0,0,0,0,0,0,0,0,0,0,-2.2377,-2.2378,-2.2412,-2.2411,-2.2411,-2.2396,-2.2395,-2.2395,-2.2318,-2.2316,-2.2314,-2.2311,-2.2297,-2.2298,-2.23,0,0,0,0,0,0,0,0,0,0,0,0,0,-2.238,-2.2378,-2.2412,-2.2371,-2.2367,-2.2396,-2.2395,-2.2395,-2.2318,-2.2316,-2.2313,-2.231,-2.2296,-2.2298,-2.23,-2.2367,0,0,-2.2306,-2.2307,0,0,0,0,0,0,0,0,-2.2379,-2.2381,-2.2377,-2.2374,-2.2369,-2.2356,-2.2377,-2.2386,-2.2319,-2.2337,-2.2312,-2.2309,-2.2319,-2.2319,-2.2322,-2.2366,-2.2366,-2.2306,-2.2307,-2.2308,-2.2309,0,0,0,0,0,0,0,-2.2379,-2.2381,-2.2405,-2.2377,-2.2372,-2.2354,-2.2351,-2.2379,-2.2344,-2.2335,-2.233,-2.2329,-2.2316,-2.232,-2.2321,-2.2365,-2.2306,-2.2308,-2.2309,-2.231,-2.2464,-2.2467,0,0,0,0,0,0,-2.2385,-2.2381,-2.2406,-2.2405,-2.2368,-2.2357,-2.2354,-2.2363,-2.2343,-2.2337,-2.2331,-2.2325,-2.2318,-2.2319,-2.232,-2.2397,-2.2308,-2.231,-2.2311,-2.2461,-2.2465,-2.2468,0,0,0,0,0,0,-2.2384,-2.2388,-2.2406,-2.2392,-2.2392,-2.236,-2.2371,-2.2364,-2.2368,-2.234,-2.2333,-2.2341,-2.2316,-2.2317,-2.2356,-2.2395,-2.2311,-2.2313,-2.2458,-2.2462,-2.2466,-2.2552,0,0,0,0,0,0,-2.2384,-2.2388,-2.2413,-2.2393,-2.2394,-2.2442,-2.2374,-2.2366,-2.2371,-2.2363,-2.2348,-2.2343,-2.2314,-2.2353,-2.2358,-2.2397,-2.2314,-2.2454,-2.246,-2.2465,-2.2545,-2.2558,-2.257,0,0,0,0,0,-2.2383,-2.2438,-2.2414,-2.2418,-2.2424,-2.2445,-2.2445,-2.2411,-2.2375,-2.24,-2.2382,-2.2343,-2.2391,-2.2358,-2.2362,-2.2402,-2.2451,-2.2458,-2.2464,-2.254,-2.2556,-2.2569,0,0,0,0,0,0,-2.2464,-2.2434,-2.2408,-2.2458,-2.2455,-2.2432,-2.2462,-2.2429,-2.2436,-2.2428,-2.2386,-2.2383,-2.2428,-2.2419,-2.2383,-2.2466,-2.2414,-2.2422,-2.247,-2.2485,-2.2497,-2.2498,-2.2316,0,0,0,0,0,-2.2488,-2.2507,-2.248,-2.2527,-2.2526,-2.2495,-2.2502,-2.2476,-2.2471,-2.2469,-2.2454,-2.245,-2.2464,-2.2474,-2.2485,-2.2544,-2.2539,-2.2573,-2.2586,-2.2596,-2.2603,-2.2633,-2.2648,-2.2489,-2.2489,-2.2489,0,0,-2.2537,-2.2523,-2.2538,-2.2543,-2.2537,-2.2558,-2.2494,-2.2519,-2.2534,-2.2473,-2.2508,-2.2497,-2.249,-2.2539,-2.2559,-2.2533,-2.2646,-2.2604,-2.2613,-2.2614,-2.2641,-2.2656,-2.267,-2.2494,-2.2493,-2.2492,0,0,-2.2637,-2.2629,-2.2667,-2.2662,-2.2653,-2.2632,-2.2641,-2.2623,-2.2613,-2.2648,-2.2603,-2.262,-2.2645,-2.2642,-2.2644,-2.2744,-2.2708,-2.2749,-2.2813,-2.2843,-2.2855,-2.2866,-2.2901,-2.2915,-2.2756,-2.2756,-2.2756,0,-2.27,-2.2729,-2.2691,-2.2718,-2.2722,-2.2667,-2.2706,-2.2703,-2.2699,-2.2703,-2.2673,-2.2703,-2.2695,-2.2742,-2.2766,-2.277,-2.2779,-2.275,-2.2856,-2.2867,-2.2877,-2.291,-2.2923,-2.2761,-2.276,-2.276,-2.276,0,-2.2806,-2.2827,-2.2859,-2.2855,-2.2863,-2.2896,-2.2863,-2.2875,-2.2849,-2.2831,-2.2867,-2.2855,-2.2863,-2.2872,-2.2846,-2.2916,-2.2899,-2.2864,-2.2811,-2.2897,-2.2928,-2.294,-2.2768,-2.2766,-2.2765,-2.2764,0,0,-2.2957,-2.2932,-2.2944,-2.2942,-2.2929,-2.2944,-2.2975,-2.2982,-2.2994,-2.2993,-2.3018,-2.304,-2.3007,-2.3009,-2.2983,-2.3009,-2.3089,-2.297,-2.2969,-2.2993,-2.3164,-2.3191,-2.3206,-2.3066,-2.3068,-2.307,-2.3165,0,-2.3052,-2.3102,-2.3069,-2.3125,-2.3144,-2.3093,-2.3119,-2.3114,-2.3099,-2.3113,-2.3095,-2.3112,-2.3067,-2.3068,-2.3092,-2.3074,-2.3123,-2.3067,-2.3088,-2.309,-2.3091,-2.3222,-2.325,-2.334,-2.3176,-2.3178,-2.318,0,-2.317,-2.3174,-2.3232,-2.3215,-2.3221,-2.3246,-2.325,-2.3264,-2.3257,-2.3244,-2.3247,-2.3214,-2.3243,-2.3191,-2.3231,-2.3194,-2.3201,-2.3194,-2.3197,-2.3197,-2.314,-2.3226,-2.3368,-2.3382,-2.3198,-2.3197,-2.3195,0,-2.3274,-2.3294,-2.3331,-2.3331,-2.3311,-2.333,-2.3323,-2.3314,-2.332,-2.3324,-2.3328,-2.3335,-2.334,-2.3346,-2.3317,-2.3282,-2.3361,-2.3306,-2.335,-2.3351,-2.3369,-2.3368,-2.3514,-2.3374,-2.3374,-2.3374,-2.3374,0,-2.3384,-2.3421,-2.3377,-2.34,-2.344,-2.3402,-2.3443,-2.3431,-2.3423,-2.3443,-2.3399,-2.3419,-2.3378,-2.3394,-2.3371,-2.3407,-2.341,-2.34,-2.3393,-2.3404,-2.3405,-2.3407,-2.34,-2.3377,-2.3377,-2.3376,-2.3375,0,-2.3507,-2.3479,-2.3515,-2.3494,-2.349,-2.3521,-2.3502,-2.3523,-2.3504,-2.353,-2.3533,-2.3504,-2.352,-2.3491,-2.3504,-2.3489,-2.354,-2.3524,-2.3542,-2.3537,-2.3582,-2.3579,-2.3735,-2.3754,-2.3602,-2.3604,-2.3605,0,-2.3579,-2.3606,-2.3588,-2.3597,-2.3593,-2.3609,-2.3615,-2.3579,-2.3588,-2.3582,-2.3604,-2.3616,-2.3624,-2.3652,-2.3632,-2.3642,-2.3625,-2.368,-2.3627,-2.3636,-2.3626,-2.3624,-2.3627,-2.369,-2.3692,-2.3694,-2.3695,0,-2.3709,-2.3694,-2.3704,-2.371,-2.3719,-2.3722,-2.3722,-2.3732,-2.3694,-2.3706,-2.3721,-2.3727,-2.374,-2.3753,-2.3758,-2.3751,-2.3717,-2.3712,-2.3723,-2.3733,-2.3742,-2.3738,-2.3571,-2.3708,-2.3707,-2.3706,-2.3705,-2.3705,-2.3808,-2.383,-2.382,-2.3834,-2.383,-2.3831,-2.3848,-2.3832,-2.3844,-2.3851,-2.3829,-2.385,-2.3843,-2.3846,-2.3843,-2.3859,-2.3835,-2.385,-2.3854,-2.3858,-2.3865,-2.374,-2.386,-2.3859,-2.3859,-2.3858,-2.3858,0,-2.3936,-2.3927,-2.394,-2.3941,-2.3951,-2.3918,-2.3916,-2.3927,-2.3946,-2.3942,-2.395,-2.3969,-2.3981,-2.3962,-2.3972,-2.3988,-2.3973,-2.3992,-2.399,-2.3989,-2.3887,-2.3876,-2.4004,-2.4004,-2.4004,-2.4004,-2.4004,-2.4004,-2.4004,-2.4039,-2.4023,-2.4055,-2.4046,-2.4066,-2.4068,-2.4068,-2.4065,-2.4087,-2.4097,-2.4084,-2.4075,-2.4083,-2.4093,-2.4087,-2.4092,-2.4117,-2.4106,-2.4011,-2.3996,-2.3983,-2.3973,-2.4119,-2.4119,-2.4207,-2.4208,-2.4208]},{"header":{"parameterUnit":"m.s-1","parameterCategory":1,"la1":30.2991,"la2":30.254,"lo1":-89.0895,"lo2":-89.0444,"dy":0.0017,"dx":0.0017,"nx":28,"ny":28,"refTime":"2023-11-08T09:00:00:Z","depth":0,"parameterNumber":3,"parameterNumberName":"V-component_of_WINDS"},"data":[0,0,0,0,0,0,0,0,0,0,0,0,0,0,0,0,0,0,0,0,0,0,0,0,0,0,0,0,0,0,0,0,0,0,0,0,0,0,0,0,0,0,0,0,0,0,0,0,0,0,0,0,0,0,0,0,0,0,-0.041,-0.041,0,-0.0386,-0.0385,-0.0385,-0.0388,-0.0389,-0.0389,-0.039,-0.0365,-0.0364,-0.0363,0,0,0,0,0,0,0,0,0,0,0,0,0,-0.0459,-0.0458,-0.0411,-0.041,-0.041,-0.0386,-0.0385,-0.0385,-0.0388,-0.0389,-0.0389,-0.039,-0.0365,-0.0364,-0.0362,0,0,0,0,0,0,0,0,0,0,0,0,0,-0.0436,-0.0458,-0.0411,-0.0409,-0.0408,-0.0386,-0.0385,-0.0385,-0.0388,-0.0389,-0.039,-0.039,-0.0365,-0.0364,-0.0362,-0.034,0,0,-0.0357,-0.0357,0,0,0,0,0,0,0,0,-0.0438,-0.0435,-0.0409,-0.0409,-0.0408,-0.0391,-0.0393,-0.037,-0.0388,-0.0396,-0.039,-0.039,-0.0373,-0.0371,-0.0365,-0.0339,-0.0338,-0.0357,-0.0356,-0.0356,-0.0355,0,0,0,0,0,0,0,-0.0439,-0.0436,-0.0401,-0.0409,-0.0408,-0.0408,-0.0406,-0.0389,-0.0381,-0.0395,-0.0395,-0.0392,-0.0373,-0.0366,-0.0364,-0.0338,-0.0357,-0.0356,-0.0355,-0.0354,-0.029,-0.0289,0,0,0,0,0,0,-0.0441,-0.0437,-0.0402,-0.04,-0.0425,-0.0407,-0.0404,-0.0396,-0.0381,-0.038,-0.0392,-0.0393,-0.0369,-0.0366,-0.0363,-0.0334,-0.0356,-0.0354,-0.0353,-0.029,-0.0289,-0.0289,0,0,0,0,0,0,-0.0442,-0.0438,-0.0403,-0.0418,-0.0414,-0.0406,-0.0396,-0.0395,-0.0389,-0.0379,-0.0377,-0.0387,-0.0369,-0.0365,-0.0345,-0.0334,-0.0354,-0.0352,-0.0291,-0.029,-0.0289,-0.0278,0,0,0,0,0,0,-0.0444,-0.0438,-0.0431,-0.0418,-0.0413,-0.0385,-0.0395,-0.0394,-0.0386,-0.0387,-0.0374,-0.0372,-0.0369,-0.0348,-0.0344,-0.0332,-0.0351,-0.0292,-0.0291,-0.0289,-0.0279,-0.0277,-0.0274,0,0,0,0,0,-0.0445,-0.0429,-0.043,-0.0426,-0.0403,-0.0385,-0.0382,-0.0379,-0.0385,-0.0376,-0.037,-0.0373,-0.0336,-0.0345,-0.0341,-0.0329,-0.0293,-0.0291,-0.0289,-0.028,-0.0277,-0.0274,0,0,0,0,0,0,-0.0442,-0.0428,-0.0429,-0.0408,-0.0398,-0.0385,-0.0375,-0.0376,-0.0363,-0.0364,-0.0361,-0.0358,-0.0337,-0.0331,-0.0342,-0.0305,-0.0315,-0.0312,-0.031,-0.0306,-0.0304,-0.0305,-0.035,0,0,0,0,0,-0.0438,-0.0425,-0.0413,-0.0396,-0.0391,-0.0384,-0.0376,-0.0374,-0.0363,-0.0358,-0.035,-0.0339,-0.0325,-0.0315,-0.0302,-0.0279,-0.0274,-0.0268,-0.0265,-0.0263,-0.026,-0.0245,-0.0241,-0.0283,-0.0283,-0.0283,0,0,-0.0432,-0.0422,-0.0414,-0.0395,-0.0387,-0.0372,-0.038,-0.0365,-0.0353,-0.0356,-0.0336,-0.0329,-0.0316,-0.0294,-0.0283,-0.0288,-0.0248,-0.0261,-0.0259,-0.0258,-0.0242,-0.0238,-0.0235,-0.0282,-0.0282,-0.0282,0,0,-0.0411,-0.0404,-0.0387,-0.0378,-0.0365,-0.0359,-0.0355,-0.0342,-0.0338,-0.0317,-0.0318,-0.0304,-0.0281,-0.027,-0.0262,-0.0235,-0.0236,-0.023,-0.0217,-0.0201,-0.0198,-0.0195,-0.0183,-0.0179,-0.0228,-0.0228,-0.0228,0,-0.0404,-0.0382,-0.0379,-0.0362,-0.0353,-0.0354,-0.0336,-0.0328,-0.0311,-0.0304,-0.0309,-0.0277,-0.0269,-0.0242,-0.0235,-0.0229,-0.0223,-0.0232,-0.0199,-0.0196,-0.0193,-0.0181,-0.0177,-0.0227,-0.0227,-0.0227,-0.0227,0,-0.0374,-0.0358,-0.0346,-0.0328,-0.0318,-0.0301,-0.0294,-0.0284,-0.0282,-0.0276,-0.0253,-0.0243,-0.0226,-0.022,-0.0219,-0.0192,-0.0195,-0.02,-0.021,-0.0188,-0.0177,-0.0173,-0.0226,-0.0226,-0.0227,-0.0227,0,0,-0.0352,-0.033,-0.0326,-0.0316,-0.03,-0.0288,-0.027,-0.0252,-0.0242,-0.023,-0.0214,-0.0192,-0.0195,-0.0186,-0.0183,-0.017,-0.0146,-0.0176,-0.0176,-0.0169,-0.0113,-0.0108,-0.0103,-0.0147,-0.0146,-0.0145,-0.0113,0,-0.0328,-0.0297,-0.0292,-0.0263,-0.0248,-0.0247,-0.0231,-0.0218,-0.0212,-0.0197,-0.0189,-0.0173,-0.018,-0.0173,-0.016,-0.0152,-0.0134,-0.0154,-0.013,-0.0129,-0.0132,-0.0098,-0.0093,-0.0064,-0.0109,-0.0108,-0.0108,0,-0.0298,-0.0283,-0.0252,-0.0236,-0.0229,-0.0215,-0.0197,-0.0183,-0.0168,-0.0164,-0.0151,-0.015,-0.013,-0.014,-0.0111,-0.0125,-0.0115,-0.0109,-0.0107,-0.0104,-0.0116,-0.0092,-0.0054,-0.0049,-0.0101,-0.0102,-0.0102,0,-0.0282,-0.0254,-0.0232,-0.0224,-0.0205,-0.0194,-0.0186,-0.0171,-0.016,-0.0144,-0.0136,-0.0119,-0.0109,-0.0095,-0.0087,-0.0096,-0.0058,-0.0069,-0.0052,-0.0052,-0.0043,-0.0044,-0.0002,-0.004,-0.004,-0.004,-0.004,0,-0.0256,-0.0237,-0.0224,-0.021,-0.0188,-0.0182,-0.016,-0.0152,-0.0138,-0.0122,-0.012,-0.0105,-0.0097,-0.0079,-0.0074,-0.0049,-0.0045,-0.004,-0.0038,-0.0039,-0.0039,-0.0031,-0.0033,-0.0038,-0.0039,-0.0039,-0.0039,0,-0.0235,-0.0226,-0.0201,-0.0183,-0.0178,-0.0163,-0.0147,-0.0133,-0.0125,-0.0104,-0.0099,-0.0086,-0.0066,-0.0057,-0.0032,-0.0028,0.0001,0.0,-0.0003,-0.0003,0.0015,0.0014,0.0064,0.0072,0.0028,0.0028,0.0028,0,-0.0218,-0.0203,-0.0183,-0.0172,-0.0162,-0.0144,-0.0132,-0.0124,-0.0111,-0.0091,-0.0079,-0.0058,-0.0041,-0.0007,0.0004,0.0024,0.0025,0.0042,0.0028,0.0028,0.0028,0.0028,0.0031,0.0044,0.0045,0.0045,0.0045,0,-0.0189,-0.0184,-0.0167,-0.0147,-0.0132,-0.0116,-0.0101,-0.0091,-0.0081,-0.0066,-0.0044,-0.0031,-0.0004,0.0018,0.0039,0.0049,0.005,0.005,0.0055,0.0055,0.0053,0.0057,0.0005,0.0048,0.0048,0.0048,0.0048,0.0048,-0.0168,-0.0154,-0.0136,-0.0116,-0.0103,-0.0088,-0.0072,-0.0062,-0.0043,-0.002,-0.0017,0.0007,0.0025,0.0054,0.0065,0.0085,0.0081,0.0087,0.009,0.0092,0.0094,0.0049,0.0088,0.0088,0.0088,0.0088,0.0088,0,-0.0137,-0.0125,-0.0106,-0.0084,-0.0067,-0.0067,-0.0049,-0.0035,-0.0014,0.0003,0.002,0.0047,0.0069,0.0084,0.0106,0.0119,0.0121,0.0125,0.0125,0.0128,0.0095,0.009,0.0124,0.0124,0.0124,0.0124,0.0124,0.0124,-0.0119,-0.0093,-0.0086,-0.0053,-0.0041,-0.0017,-0.0006,0.0009,0.0022,0.0052,0.0071,0.008,0.0097,0.0121,0.0142,0.0146,0.0155,0.016,0.0164,0.0134,0.013,0.0126,0.0121,0.0162,0.0162,0.0196,0.0196,0.0196]}]]